This demonstration page uses our WeatherBlox Daily Observations layout. Learn more.

Left ArrowRight Arrow

Hourly Observations for January 25, 2017

Temp ( °F °C ) Dew Point ( °F °C ) Humidity (%) Winds ( mph kmh ) Pressure ( in mb ) Visibility ( mi km ) Precip ( " mm )
12:04 am 00:04 Cloudy with Light Snow 32 0 32 0 100 100 NW 6 9 29.62 1003 10 16 0.00 0.00
12:07 am 00:07 Cloudy with Light Snow 32 0 32 0 100 100 NNW 6 9 29.62 1003 10 16 0.00 0.00
12:37 am 00:37 Cloudy with Light Snow 32 0 32 0 100 100 NW 8 13 29.62 1003 8 13 0.00 0.00
12:54 am 00:54 Cloudy 32 0 32 0 100 100 NW 7 11 29.62 1003 7 11 0.00 0.00
12:58 am 00:58 Cloudy 33 0.3 33 0.3 100 100 NW 6 9 29.60 1002 7 11 0.01 0.25
1:01 am 01:01 Cloudy 32 0 32 0 100 100 NW 7 11 29.62 1003 7 11 0.00 0.00
1:05 am 01:05 Cloudy with Light Snow 32 0 32 0 100 100 NW 7 11 29.62 1003 7 11 0.00 0.00
1:19 am 01:19 Cloudy 32 0 32 0 100 100 NW 8 13 29.62 1003 7 11 0.00 0.00
1:52 am 01:52 Cloudy 32 0 32 0 100 100 NW 7 11 29.62 1003 9 14 0.00 0.00
1:58 am 01:58 Cloudy 33 0.4 33 0.4 100 100 NW 6 9 29.60 1003 9 14 0.00 0.03
2:25 am 02:25 Cloudy 32 0 32 0 100 100 WNW 6 9 29.65 1004 10 16 0.00 0.00
2:58 am 02:58 Cloudy 32 0.2 32 0.2 100 100 WNW 8 13 29.62 1003 10 16 0.01 0.25
3:58 am 03:58 Cloudy 32 0.2 32 0.2 100 100 NW 9 15 29.63 1003 10 16 0.00 0.00
4:02 am 04:02 Cloudy 32 0 32 0 100 100 NW 9 15 29.65 1004 10 16 0.00 0.00
4:48 am 04:48 Cloudy with Light Freezing Rain 32 0 32 0 100 100 WNW 9 15 29.68 1005 6 10 0.00 0.00
4:58 am 04:58 Cloudy with Light Freezing Rain 32 0 32 0 100 100 WNW 8 13 29.65 1004 6 10 0.00 0.03
5:43 am 05:43 Cloudy 32 0 32 0 100 100 NW 10 17 29.68 1005 7 11 0.00 0.00
5:55 am 05:55 Cloudy with Light Freezing Rain 32 0 32 0 100 100 NW 9 15 29.68 1005 6 10 0.00 0.00
5:58 am 05:58 Cloudy with Light Freezing Rain 32 0 32 0 100 100 NW 10 17 29.67 1005 6 10 0.00 0.03
6:11 am 06:11 Cloudy with Light Snow 32 0 32 0 100 100 NW 9 15 29.68 1005 5 8 0.00 0.00
6:24 am 06:24 Cloudy with Light Snow 32 0 32 0 100 100 NW 9 15 29.68 1005 5 8 0.00 0.00
6:27 am 06:27 Cloudy with Light Snow 32 0 32 0 100 100 WNW 9 15 29.68 1005 5 8 0.00 0.00
6:54 am 06:54 Cloudy with Light Snow 32 0 32 0 100 100 WNW 10 17 29.71 1006 4 6 0.00 0.00
6:58 am 06:58 Cloudy with Light Snow 31 -0.3 31 -0.3 100 100 WNW 10 17 29.68 1005 4 6 0.00 0.03
7:01 am 07:01 Cloudy with Light Snow 32 0 32 0 100 100 WNW 10 17 29.71 1006 3 5 0.00 0.00
7:07 am 07:07 Cloudy with Light Snow 32 0 32 0 100 100 NW 12 19 29.71 1006 3 4 0.00 0.00
7:10 am 07:10 Cloudy with Light Snow 32 0 32 0 100 100 NW 12 19 29.71 1006 3 4 0.00 0.00
7:13 am 07:13 Cloudy with Light Snow 32 0 32 0 100 100 WNW 12 19 29.71 1006 3 5 0.00 0.00
7:31 am 07:31 Cloudy with Light Snow 32 0 32 0 100 100 NW 10 17 29.71 1006 3 5 0.00 0.00
7:34 am 07:34 Cloudy with Light Snow 32 0 32 0 100 100 NW 10 17 29.71 1006 3 5 0.00 0.00
7:37 am 07:37 Cloudy with Light Snow 32 0 32 0 100 100 NW 12 19 29.71 1006 3 5 0.00 0.00
7:40 am 07:40 Cloudy with Light Snow 32 0 32 0 100 100 NW 10 17 29.71 1006 3 4 0.00 0.00
7:46 am 07:46 Cloudy with Light Snow 32 0 32 0 100 100 NW 9 15 29.71 1006 3 5 0.00 0.00
7:49 am 07:49 Cloudy with Light Snow 32 0 32 0 100 100 NW 10 17 29.71 1006 3 4 0.00 0.00
7:52 am 07:52 Cloudy with Light Snow 32 0 32 0 100 100 NW 10 17 29.71 1006 3 4 0.00 0.00
7:58 am 07:58 Cloudy with Light Snow 31 -0.4 31 -0.4 100 100 NW 13 20 29.70 1006 3 4 0.00 0.03
8:13 am 08:13 Cloudy with Light Snow 32 0 32 0 100 100 NW 13 20 29.74 1007 3 4 0.00 0.00
8:34 am 08:34 Cloudy with Light Snow 32 0 32 0 100 100 NW 14 22 29.74 1007 2 3 0.00 0.00
8:40 am 08:40 Cloudy with Light Snow 32 0 32 0 100 100 NW 14 22 29.74 1007 2 3 0.00 0.00
8:46 am 08:46 Cloudy with Light Snow 32 0 32 0 100 100 NW 15 24 29.74 1007 2 3 0.00 0.00
8:49 am 08:49 Cloudy with Light Snow 32 0 32 0 100 100 NW 16 26 29.74 1007 2 3 0.00 0.00
8:58 am 08:58 Cloudy with Light Snow 31 -0.8 31 -0.8 100 100 NW 16 26 29.74 1007 2 3 0.00 0.03
9:04 am 09:04 Cloudy with Light Snow 32 0 32 0 100 100 NW 15 24 29.77 1008 3 4 0.00 0.00
9:18 am 09:18 Cloudy with Light Snow 32 0 32 0 100 100 WNW 16 26 29.77 1008 3 4 0.00 0.00
9:25 am 09:25 Cloudy with Light Snow 30 -1 30 -1 100 100 NW 15 24 29.77 1008 2 3 0.00 0.00
9:31 am 09:31 Cloudy with Light Snow 30 -1 30 -1 100 100 NW 16 26 29.77 1008 2 3 0.00 0.00
9:41 am 09:41 Cloudy with Light Snow 28 -2 28 -2 100 100 NW 18 30 29.80 1009 2 3 0.00 0.00
9:58 am 09:58 Cloudy with Light Snow 29 -1.7 29 -1.7 100 100 NW 18 30 29.77 1008 2 3 0.00 0.03
10:04 am 10:04 Cloudy with Light Snow 28 -2 28 -2 100 100 NW 17 28 29.80 1009 2 3 0.00 0.00
10:10 am 10:10 Windy with Snow Likely 28 -2 28 -2 100 100 NW 20 31 29.80 1009 2 3 0.00 0.00
10:13 am 10:13 Cloudy with Light Snow 28 -2 28 -2 100 100 NW 16 26 29.80 1009 2 3 0.00 0.00
10:19 am 10:19 Cloudy with Light Snow 28 -2 28 -2 100 100 NW 18 30 29.80 1009 2 3 0.00 0.00
10:25 am 10:25 Cloudy with Light Snow 28 -2 28 -2 100 100 NW 17 28 29.80 1009 3 5 0.00 0.00
10:58 am 10:58 Cloudy with Light Snow 29 -1.4 29 -1.5 99 99 NW 17 28 29.80 1009 3 5 0.00 0.03
11:10 am 11:10 Cloudy with Light Snow 30 -1 30 -1 100 100 NW 15 24 29.80 1009 4 6 0.00 0.00
11:31 am 11:31 Windy with Snow Likely 30 -1 28 -2 93 93 NW 20 31 29.80 1009 3 5 0.00 0.00
11:34 am 11:34 Cloudy with Light Snow 28 -2 28 -2 100 100 NW 17 28 29.83 1010 3 5 0.00 0.00
11:43 am 11:43 Windy with Snow Likely 28 -2 28 -2 100 100 NW 21 33 29.83 1010 3 5 0.00 0.00
11:58 am 11:58 Windy with Snow Likely 29 -1.6 29 -1.7 99 99 NW 20 31 29.83 1010 3 5 0.01 0.25
12:22 pm 12:22 Windy with Snow Likely 28 -2 28 -2 100 100 NW 22 35 29.83 1010 3 4 0.00 0.00
12:28 pm 12:28 Windy with Snow Likely 28 -2 28 -2 100 100 NW 21 33 29.83 1010 3 5 0.00 0.00
12:46 pm 12:46 Windy with Snow Likely 30 -1 28 -2 93 93 NW 22 35 29.80 1009 3 5 0.00 0.00
12:53 pm 12:53 Cloudy with Light Snow 30 -1 30 -1 100 100 NW 16 26 29.80 1009 5 8 0.00 0.00
12:54 pm 12:54 Cloudy with Light Wintry Mix 30 -1 30 -1 100 100 NW 18 30 29.80 1009 5 8 0.00 0.00
12:58 pm 12:58 Cloudy with Light Snow 30 -1.3 29 -1.4 99 99 NW 17 28 29.82 1010 5 8 0.00 0.03
1:31 pm 13:31 Windy with Snow Likely 30 -1 30 -1 100 100 NW 21 33 29.85 1011 8 13 0.00 0.00
1:40 pm 13:40 Windy with Snow Likely 30 -1 30 -1 100 100 NW 22 35 29.85 1011 8 13 0.00 0.00
1:58 pm 13:58 Windy with Snow Likely 30 -1.1 29 -1.6 96 96 NW 20 31 29.83 1010 10 16 0.00 0.03
2:16 pm 14:16 Cloudy with Light Wintry Mix 30 -1 28 -2 93 93 NW 23 37 29.85 1011 10 16 0.00 0.00
2:58 pm 14:58 Cloudy with Light Snow 30 -1.2 29 -1.7 96 96 NW 16 26 29.86 1011 7 11 0.00 0.03
3:58 pm 15:58 Windy with Snow Likely 30 -1.1 29 -1.8 95 95 NW 20 31 29.89 1012 10 16 0.00 0.03
4:58 pm 16:58 Windy with Snow Likely 29 -1.8 28 -2.4 96 96 NW 22 35 29.93 1013 6 10 0.00 0.03
5:58 pm 17:58 Cloudy with Light Snow 28 -2 27 -3 93 93 NW 18 30 29.96 1014 10 16 0.00 0.03
6:04 pm 18:04 Cloudy with Light Snow 28 -2 27 -3 93 93 NW 17 28 29.97 1015 10 16 0.00 0.00
6:49 pm 18:49 Windy with Snow Likely 27 -3 27 -3 100 100 NW 21 33 30.00 1016 10 16 0.00 0.00
6:58 pm 18:58 Windy with Snow Likely 27 -2.7 27 -3 98 98 NW 20 31 29.98 1015 10 16 0.00 0.03
7:25 pm 19:25 Windy with Snow Likely 27 -3 27 -3 100 100 WNW 22 35 30.00 1016 10 16 0.00 0.00
7:58 pm 19:58 Cloudy with Light Snow 27 -3 27 -3 100 100 WNW 17 28 30.00 1016 9 14 0.00 0.03
8:58 pm 20:58 Cloudy 26 -3.3 25 -3.7 97 97 WNW 13 20 30.01 1016 10 16 0.00 0.03
9:10 pm 21:10 Cloudy 27 -3 25 -4 93 93 WNW 14 22 30.03 1017 10 16 0.00 0.00
9:25 pm 21:25 Cloudy 27 -3 25 -4 93 93 WNW 16 26 30.03 1017 10 16 0.00 0.00
9:40 pm 21:40 Cloudy 27 -3 25 -4 93 93 NW 15 24 30.03 1017 10 16 0.00 0.00
9:53 pm 21:53 Cloudy with Light Snow 27 -3 25 -4 93 93 NW 17 28 30.03 1017 10 16 0.00 0.00
9:58 pm 21:58 Cloudy with Light Snow 26 -3.3 24 -4.2 94 94 WNW 15 24 30.03 1017 10 16 0.00 0.03
10:31 pm 22:31 Windy with Snow Likely 25 -4 25 -4 100 100 WNW 20 31 30.03 1017 10 16 0.00 0.00
10:48 pm 22:48 Cloudy with Light Snow 25 -4 23 -5 93 93 WNW 14 22 30.06 1018 10 16 0.00 0.00
10:57 pm 22:57 Cloudy with Light Snow 25 -4 23 -5 93 93 WNW 14 22 30.06 1018 10 16 0.00 0.00
10:58 pm 22:58 Cloudy with Light Snow 24 -4.3 24 -4.6 98 98 WNW 14 22 30.05 1018 10 16 0.00 0.03
11:04 pm 23:04 Cloudy with Light Snow 25 -4 23 -5 93 93 NW 16 26 30.06 1018 10 16 0.00 0.00
11:07 pm 23:07 Mostly Cloudy with Light Snow 25 -4 23 -5 93 93 WNW 17 28 30.06 1018 10 16 0.00 0.00
11:10 pm 23:10 Mostly Cloudy with Light Snow 25 -4 23 -5 93 93 NW 16 26 30.06 1018 10 16 0.00 0.00
11:13 pm 23:13 Mostly Cloudy 23 -5 23 -5 100 100 NW 16 26 30.06 1018 10 16 0.00 0.00
11:16 pm 23:16 Partly Cloudy 23 -5 23 -5 100 100 NW 14 22 30.06 1018 10 16 0.00 0.00
11:38 pm 23:38 Mostly Cloudy with Light Snow 23 -5 23 -5 100 100 WNW 14 22 30.06 1018 10 16 0.00 0.00
11:58 pm 23:58 Partly Cloudy with Scattered Snow Showers 24 -4.7 23 -5.2 96 96 WNW 16 26 30.06 1018 10 16 0.00 0.03

Powered by AerisWeather